User: anonymous   Login
Location: Fort Wayne
(41.1310°N, 85.1290°W)
Time: 18:29:38
(UTC-04:00)
Language:

Gbstr 26 Del rocket - Orbit

View from above orbital plane
View from above orbital plane
View from above satellite
View from above satellite

Ground track
Ground track

The orbit data is extracted from the following two-line orbital elements,

1 25876U 99041E   15084.75171308  .00001895  00000-0  36704-3 0  9997
2 25876 051.7646 288.2717 0536907 175.6447 184.9435 14.02992077800236
Epoch (UTC): 25 March 2015 18:02:28
Eccentricity: 0.0536907
inclination: 51.7646°
perigee height: 493 km
apogee height: 1273 km
right ascension of ascending node: 288.2717°
argument of perigee: 175.6447°
revolutions per day: 14.02992077
mean anomaly at epoch: 184.9435°
orbit number at epoch: 80023

The dashed part of the orbit path shows where the satellite is in the earth's shadow,  

DLR